Flag for Germany Weather past 2 weeks in Görlitz, Saxony, Germany

Now
57 °F

Overcast.


Feels Like: 56 °F
Forecast: 38 / 52 °F
Wind: 6 mph from Southwest

Location: Goerlitz

Current Time: Oct 21, 2014 at 4:21:51 PM

Latest Report: Oct 21, 2014 at 4:00 PM


Visibility: 28 mi

Pressure: 29.70 "Hg

Humidity: 69%

Dew point: 47 °F

Location of GörlitzLocation

Historic Weather in Görlitz — Graph

°F

Görlitz temperature yesterday

Maximum temperature yesterday: 61 °F (at 3:00 PM)
Minimum temperature yesterday: 54 °F (at 7:00 PM)
Average temperature yesterday: 57 °F

Past Weeks' High & Low Weather Summary

 TemperatureHumidityPressure
High68 °F (Oct 9, 3:00 PM)98% (Oct 11, 3:00 AM)30.27 "Hg (Oct 11, 3:00 AM)
Low49 °F (Oct 21, 7:00 AM)54% (Oct 6, 5:00 PM)29.72 "Hg (Oct 21, 3:00 PM)
Average58 °F85%29.92 "Hg
* Reported Oct 6 3:00 PM — Oct 21 3:00 PM, Görlitz, Weather by CustomWeather, © 2014

Note: Actual official high and low records may vary slightly from our data, if they occured in-between our weather recording intervals... More about our weather records

Advertising

Görlitz weather history for previous 24 hours

 ConditionsComfort  
Time TempWeatherWind HumidityBarometerVisibility
3:00 PM
Oct 21
58 °FPartly sunny.7 mph68%29.72 "Hg28 mi
2:00 PM58 °FPartly sunny.5 mph69%29.75 "Hg31 mi
1:00 PM60 °FPartly sunny.6 mph69%29.78 "Hg25 mi
12:00 PM56 °FPartly sunny.6 mph77%29.82 "Hg25 mi
11:00 AM55 °FPartly sunny.6 mph78%29.83 "Hg22 mi
10:00 AM54 °FPartly sunny.6 mph80%29.84 "Hg19 mi
9:00 AM52 °FPartly sunny.5 mph83%29.86 "Hg17 mi
8:00 AM50 °FPartly sunny.5 mph88%29.87 "Hg16 mi
7:00 AM49 °FPassing clouds.3 mph88%29.88 "Hg17 mi
6:00 AM52 °FOvercast.3 mph84%29.88 "Hg31 mi
5:00 AM52 °FOvercast.3 mph83%29.89 "Hg31 mi
4:00 AM52 °FOvercast.3 mph83%29.90 "Hg34 mi
3:00 AM53 °FOvercast.5 mph82%29.90 "Hg28 mi
2:00 AM53 °FOvercast.5 mph80%29.91 "Hg28 mi
1:00 AM54 °FOvercast.3 mph81%29.92 "Hg37 mi
12:00 AM54 °FOvercast.3 mph80%29.93 "Hg37 mi
11:00 PM
Oct 20
55 °FOvercast.5 mph76%29.93 "Hg34 mi
10:00 PM54 °FOvercast.5 mph77%29.94 "Hg37 mi
9:00 PM54 °FOvercast.5 mph75%29.94 "Hg37 mi
8:00 PM55 °FOvercast.6 mph76%29.95 "Hg37 mi
7:00 PM54 °FOvercast.3 mph79%29.95 "Hg37 mi
6:00 PM57 °FOvercast.5 mph73%29.94 "Hg37 mi
5:00 PM59 °FOvercast.5 mph68%29.94 "Hg37 mi
4:00 PM60 °FOvercast.7 mph65%29.95 "Hg34 mi
Weather by CustomWeather, © 2014

See weather overviewHow to use our weather pages